Weather in Bulgin

Russia / Khabarovsk Krai     59°22′13″N   143°08′53″E
temp.,
°C
wind,
m/s
gust,
m/s
humid.,
%
clouds,
%
prec.,
mm/h
press.,
hPa
HPBL,
m
27 february, sat
sat2701:00−20n45780 0.0 102450
04:00−21n56770 0.0 102474
07:00−22n56770 0.0 102487
10:00−21n47750 0.0 1025167
13:00−18n34740 0.0 1025263
16:00−18nw12820 0.0 102430
19:00−20nnw22870 0.0 102420
22:00−21n22850 0.0 102420
28 february, sun
sun2801:00−22nnw22840 0.0 102420
04:00−22nne33850 0.0 102230
07:00−22n228680 0.0 102122
10:00−21n448182 0.0 1019111
13:00−18n3478100 0.0 1018223
16:00−16nnw4680100 0.0 1016244
19:00−17nnw448299 0.0 101530
22:00−17nnw457899 0.0 101474
1 march, mon
mon101:00−18n5876100 0.0 1012145
04:00−18nnw61072100 0.0 1012216
07:00−19nnw6873100 0.0 1011176
10:00−17nnw6870100 0.0 1010264
13:00−15nnw5770100 0.0 1009353
16:00−14nnw4674100 0.0 1009327
19:00−15nnw2379100 0.0 101062
22:00−16nnw2380100 0.0 101145
2 march, tue
tue201:00−16n3390100 0.1 1011126
04:00−17n4596100 0.3 1012213
07:00−18n4697100 0.4 1013188
10:00−17n3496100 0.8 1014195
13:00−15se4590100 0.4 1015576
16:00−16se5693100 0.7 1015542
19:00−17se3496100 0.2 1016271
22:00−18sse2297100 0.4 1017170
3 march, wed
wed301:00−19se1298100 0.2 1017149
04:00−20s23100100 0.4 1017126
07:00−21sse2399100 0.2 1016132
10:00−21ese4598100 0.4 1016290
13:00−21ese4593100 0.1 1014466
16:00−21se2391100 0.1 1012336
19:00−24ssw129871 0.0 101120
22:00−23wsw1110075 0.0 100955